Regional Weather Roundup
Issued by NWS

Home | Current Version | Previous Version | Graphics & Text | Print | Product List | Glossary On
Versions: 1 2 3 4 5 6 7 8 9 10 11 12 13 14 15 16 17 18 19 20 21 22 23 24 25 26 27 28 29 30 31 32 33 34 35 36 37 38 39 40 41 42 43 44 45 46 47 48 49 50
000
ASUS44 KMEG 230510
RWRTN
TENNESSEE HOURLY STATE WEATHER ROUNDUP
NATIONAL WEATHER SERVICE MEMPHIS TN
1200 AM CDT WED JUL 23 2014

TNZ002-004-019-021-049-052-054-088>092-230600-
WEST TENNESSEE

CITY           SKY/WX    TMP DP  RH WIND       PRES   REMARKS
MEMPHIS INTL   PTCLDY    80  70  71 CALM      30.08R
NWS MEMPHIS      N/A     74 N/A N/A MISG        N/A
JACKSON        CLEAR     73  71  93 CALM      30.08R FOG
DYERSBURG      CLEAR     73  64  73 CALM      30.08S
UNION CITY     CLEAR     73  72  94 CALM      30.06S
PARIS          CLEAR     70  67  90 CALM      30.08S
LEXINGTON      CLEAR     73  72  94 CALM      30.08S
SAVANNAH       CLEAR     73  73 100 SE5       30.09S
$$

TNZ008-025-027-028-033-062-065-066-230600-
NORTH MIDDLE TENNESSEE

CITY           SKY/WX    TMP DP  RH WIND       PRES   REMARKS
NASHVILLE      MOCLDY    77  72  84 CALM      30.08S
DICKSON        PTCLDY    75  72  88 CALM      30.09F
PORTLAND       CLEAR     73  72  94 CALM      30.08S
CLARKSVILLE    CLOUDY    77  73  87 CALM      30.07S
LEBANON        PTCLDY    75  70  85 S5        30.07S
SMYRNA         MOCLDY    76  74  93 CALM      30.09S
COOKEVILLE     MOCLDY    75  73  94 CALM      30.11S
GALLATIN       PTCLDY    76  73  90 CALM      30.09S
CROSSVILLE     PTCLDY    72  69  90 W3        30.17S
$$

TNZ061-075-076-078-094-096-097-230600-
SOUTH MIDDLE TENNESSEE

CITY           SKY/WX    TMP DP  RH WIND       PRES   REMARKS
LEWISBURG      CLOUDY    75  72  91 CALM      30.09F
FAYETTEVILLE   CLEAR     70  70 100 CALM      30.11F
TULLAHOMA      MOCLDY    73  70  88 CALM      30.13F
WINCHESTER     CLEAR     72  70  94 S3        30.12F
MCMINNVILLE    PTCLDY    73  73 100 CALM      30.12S
COLUMBIA       PTCLDY    75  73  94 CALM      30.08S
SHELBYVILLE    CLOUDY    75  73  94 SE3       30.11F
$$

TNZ017-018-042-046-047-230600-
NORTHEAST TENNESSEE

CITY           SKY/WX    TMP DP  RH WIND       PRES   REMARKS
TRI CITIES     PTCLDY    73  67  81 CALM      30.14F
ELIZABETHTON   CLEAR     68  64  88 E3        30.15F
$$

TNZ012-013-036-069-073-074-230600-
CENTRAL EAST TENNESSEE

CITY           SKY/WX    TMP DP  RH WIND       PRES   REMARKS
KNOXVILLE      CLOUDY    76  71  85 SW7       30.10F
OAK RIDGE      CLOUDY    77  72  84 CALM      30.12F
GATLINBURG     MOCLDY    73  70  88 CALM      30.11S
MORRISTOWN     CLEAR     73  70  88 CALM      30.13F
$$

TNZ083-085-099-230600-
SOUTHEAST TENNESSEE

CITY           SKY/WX    TMP DP  RH WIND       PRES   REMARKS
CHATTANOOGA    PTCLDY    74  70  87 CALM      30.12R
$$

SKY/WX REPORTED AS FAIR MEANS FEW OR NO CLOUDS BELOW
12 THOUSAND FEET.




USA.gov is the U.S. government's official web portal to all federal, state and local government web resources and services.